Stations météo

Publicité
Ouessant, France (7100): Température de l'air & dewpoint: 20.06.2017 07:00:00 - 26.06.2017 07:00:00 (CEST)Ouessant, France (7100): Vitesse du vent & gusts: 20.06.2017 07:00:00 - 26.06.2017 07:00:00 (CEST)Ouessant, France (7100): Direction du vent: 20.06.2017 07:00:00 - 26.06.2017 07:00:00 (CEST)Ouessant, France (7100): reduced air pressure: 20.06.2017 07:00:00 - 26.06.2017 07:00:00 (CEST)Ouessant, France (7100): visibility: 20.06.2017 07:00:00 - 26.06.2017 07:00:00 (CEST)Ouessant, France (7100): Quantités de précipitations: 20.06.2017 07:00:00 - 26.06.2017 07:00:00 (CEST)
Date & Time tt [°C] td [°C] ff [km/h] ff [knt] fx [km/h] fx [knt] dd ppp [hPa] vv [km] rr [mm]
26.06.2017 07:00:00 14,0 13,5 8 4 12 6 NE 1014,0 - 0,0
26.06.2017 06:00:00 14,1 13,6 5 3 11 6 NE 1014,3 - 0,0
26.06.2017 05:00:00 14,3 13,8 6 3 9 5 ENE 1014,6 0,1 0,0
26.06.2017 04:00:00 14,5 14,0 6 3 11 6 ENE 1015,1 - 0,2
26.06.2017 03:00:00 14,8 14,2 5 3 8 4 NE 1015,4 - 0,2
26.06.2017 02:00:00 14,9 14,3 5 3 8 4 NE 1015,8 12 0,0
26.06.2017 01:00:00 15,0 14,2 6 4 13 7 NE 1016,1 - 0,0
26.06.2017 00:00:00 15,1 14,0 7 4 16 8 N 1016,6 - 0,0
25.06.2017 23:00:00 15,4 14,1 8 4 23 12 W 1016,7 18 0,0
25.06.2017 22:00:00 15,5 14,7 11 6 19 10 WNW 1016,4 - 0,0
25.06.2017 21:00:00 16,2 15,7 10 5 19 10 NW 1016,4 - 0,0
25.06.2017 20:00:00 16,2 15,6 17 9 26 14 NW 1016,4 0,8 0,2
25.06.2017 19:00:00 16,9 15,6 17 9 31 17 WNW 1016,7 - 0,0
25.06.2017 18:00:00 19,1 15,8 23 12 35 19 W 1017,0 - 0,0
25.06.2017 17:00:00 18,7 16,7 23 12 32 17 W 1017,5 8 0,0
25.06.2017 16:00:00 17,7 16,0 21 11 31 17 WSW 1017,7 - 0,0
25.06.2017 15:00:00 17,8 15,8 22 12 31 17 SW 1018,0 - 0,0
25.06.2017 14:00:00 18,6 16,0 20 11 31 17 WSW 1018,0 12 0,0
25.06.2017 13:00:00 18,3 15,5 21 11 30 16 SW 1018,0 - 0,0
25.06.2017 12:00:00 18,5 15,6 20 11 28 15 W 1018,1 - 0,0
25.06.2017 11:00:00 17,2 15,2 20 11 29 15 W 1018,0 18 0,0
25.06.2017 10:00:00 17,0 14,8 22 12 32 17 W 1017,9 - 0,0
25.06.2017 09:00:00 16,4 14,4 25 14 35 19 W 1017,7 - 0,0
25.06.2017 08:00:00 15,3 13,8 26 14 35 19 W 1017,5 20 0,0
25.06.2017 07:00:00 14,3 13,0 26 14 32 17 W 1017,6 - 0,0
25.06.2017 06:00:00 13,5 12,2 23 13 31 17 W 1017,7 - 0,0
25.06.2017 05:00:00 13,5 12,2 24 13 29 16 W 1017,8 20 0,0
25.06.2017 04:00:00 13,7 12,4 22 12 29 15 W 1018,1 - 0,0
25.06.2017 03:00:00 13,5 11,9 18 10 27 15 W 1018,4 - 0,0
25.06.2017 02:00:00 14,4 12,1 22 12 29 16 W 1018,4 - 0,0
25.06.2017 01:00:00 14,9 13,4 15 8 34 18 W 1018,7 - 0,0
25.06.2017 00:00:00 15,5 13,5 21 11 34 19 W 1018,8 - 0,0
24.06.2017 23:00:00 - - - - - - - - - -
24.06.2017 22:00:00 - - - - - - - - - -
24.06.2017 21:00:00 - - - - - - - - - -
24.06.2017 20:00:00 16,3 14,5 18 10 34 18 W 1017,8 - 0,0
24.06.2017 19:00:00 16,9 14,9 24 13 36 20 W 1017,5 - 0,0
24.06.2017 18:00:00 17,4 16,6 29 16 41 22 W 1017,4 - 0,0
24.06.2017 17:00:00 17,0 16,4 30 16 46 25 SW 1017,6 0,7 0,0
24.06.2017 16:00:00 16,8 16,2 29 16 40 22 SSW 1017,8 - 0,2
24.06.2017 15:00:00 17,4 15,6 29 15 46 25 SW 1018,4 - 0,0
24.06.2017 14:00:00 18,1 15,5 29 16 42 23 SW 1018,7 - 0,0
24.06.2017 13:00:00 18,3 15,2 29 16 44 24 SW 1018,5 - 0,0
24.06.2017 12:00:00 18,5 15,7 25 14 41 22 SW 1018,5 - 0,0
24.06.2017 11:00:00 18,0 15,3 29 16 40 22 SW 1018,6 16 0,0
24.06.2017 10:00:00 17,7 15,0 27 14 40 22 SW 1018,9 - 0,0
24.06.2017 09:00:00 17,0 14,6 24 13 43 23 WSW 1018,9 - 0,0
24.06.2017 08:00:00 16,3 14,7 23 13 37 20 WSW 1019,0 12 0,0
24.06.2017 07:00:00 15,5 14,0 26 14 36 20 WSW 1019,0 - 0,0
24.06.2017 06:00:00 15,5 14,2 27 15 37 20 WSW 1019,2 - 0,0
24.06.2017 05:00:00 15,1 14,0 23 12 33 18 SW 1019,5 - 0,0
24.06.2017 04:00:00 15,5 13,9 24 13 36 19 WSW 1020,2 - 0,0
24.06.2017 03:00:00 15,2 13,7 26 14 34 18 WSW 1020,5 - 0,0
24.06.2017 02:00:00 15,1 13,3 24 13 32 18 WSW 1020,8 - 0,0
24.06.2017 01:00:00 14,9 13,3 24 13 35 19 WSW 1021,2 - 0,0
24.06.2017 00:00:00 15,0 13,2 25 14 34 18 W 1021,6 - 0,0
23.06.2017 23:00:00 15,3 13,5 22 12 30 16 WSW 1021,3 16 0,0
23.06.2017 22:00:00 16,4 14,4 20 11 32 18 W 1021,2 - 0,0
23.06.2017 21:00:00 18,2 15,3 22 12 37 20 WSW 1021,0 - 0,0
23.06.2017 20:00:00 19,0 15,7 29 16 46 25 SW 1021,0 25 0,0
23.06.2017 19:00:00 19,6 15,7 28 15 45 24 SW 1021,3 - 0,0
23.06.2017 18:00:00 20,1 15,5 35 19 52 28 SW 1021,4 - 0,0
23.06.2017 17:00:00 19,3 15,8 26 14 45 24 SSW 1021,4 25 0,0
23.06.2017 16:00:00 20,3 15,3 29 16 46 25 SW 1021,6 - 0,0
23.06.2017 15:00:00 20,3 14,2 29 16 45 24 SW 1021,6 - 0,0
23.06.2017 14:00:00 19,2 14,0 31 17 41 22 SW 1021,6 - 0,0
23.06.2017 13:00:00 18,2 13,9 26 14 37 20 SW 1021,9 - 0,0
23.06.2017 12:00:00 17,5 13,0 22 12 29 16 WSW 1021,9 - 0,0
23.06.2017 11:00:00 17,7 12,4 13 7 23 12 W 1021,7 25 0,0
23.06.2017 10:00:00 16,3 13,0 17 9 24 13 WSW 1021,6 - 0,0
23.06.2017 09:00:00 15,9 13,0 11 6 18 10 WSW 1021,2 - 0,0
23.06.2017 08:00:00 15,4 12,3 13 7 20 11 W 1020,8 25 0,0
23.06.2017 07:00:00 15,0 12,3 16 9 26 14 W 1020,5 - 0,0
23.06.2017 06:00:00 15,3 11,9 18 10 26 14 WNW 1020,3 - 0,0
23.06.2017 05:00:00 15,0 11,4 14 8 28 15 W 1020,3 15 0,0
23.06.2017 04:00:00 15,2 11,8 19 11 27 15 WNW 1020,2 - 0,0
23.06.2017 03:00:00 15,5 12,3 20 11 29 16 NW 1020,2 - 0,0
23.06.2017 02:00:00 15,5 13,0 16 9 22 12 WNW 1020,4 20 0,0
23.06.2017 01:00:00 15,9 13,7 16 9 24 13 NW 1020,3 - 0,0
23.06.2017 00:00:00 16,0 13,8 16 9 23 12 NW 1019,8 - 0,0
22.06.2017 23:00:00 16,2 13,7 13 7 20 11 NW 1019,3 20 0,0
22.06.2017 22:00:00 16,4 13,9 13 7 17 9 NW 1018,7 - 0,0
22.06.2017 21:00:00 16,6 14,4 13 7 21 11 NNW 1018,4 - 0,0
22.06.2017 20:00:00 18,1 14,6 16 9 24 13 NNW 1018,3 20 0,0
22.06.2017 19:00:00 17,7 14,8 20 11 29 16 NNW 1018,2 - 0,0
22.06.2017 18:00:00 19,1 15,4 22 12 30 16 W 1018,0 - 0,0
22.06.2017 17:00:00 20,0 15,6 22 12 35 19 W 1017,9 - 0,0
22.06.2017 16:00:00 20,3 15,9 25 14 33 18 W 1017,8 - 0,0
22.06.2017 15:00:00 20,1 15,9 23 13 30 16 WNW 1017,8 - 0,0
22.06.2017 14:00:00 19,7 15,3 21 11 29 16 WNW 1017,6 20 0,0
22.06.2017 13:00:00 19,8 16,1 18 10 31 17 NW 1017,6 - 0,0
22.06.2017 12:00:00 19,3 15,6 20 11 29 15 WNW 1017,0 - 0,0
22.06.2017 11:00:00 19,0 15,7 18 10 26 14 WNW 1016,8 15 0,0
22.06.2017 10:00:00 18,6 16,2 19 10 25 14 WNW 1016,2 - 0,0
22.06.2017 09:00:00 17,1 15,8 16 9 23 12 WNW 1015,9 - 0,0
22.06.2017 08:00:00 16,4 15,9 15 8 21 11 W 1015,4 12 0,0
22.06.2017 07:00:00 16,0 15,5 16 9 21 11 W 1015,3 - 0,0
22.06.2017 06:00:00 15,2 14,4 17 9 19 11 W 1015,1 - 0,0
22.06.2017 05:00:00 16,2 15,2 13 7 17 9 W 1014,8 8 0,0
22.06.2017 04:00:00 16,2 15,2 9 5 20 11 W 1014,5 - 0,0
22.06.2017 03:00:00 15,9 15,3 16 9 22 12 W 1015,2 - 0,0
22.06.2017 02:00:00 16,3 15,7 13 7 20 11 W 1015,5 2,0 0,0
22.06.2017 01:00:00 16,3 15,7 13 7 20 11 W 1015,3 - 0,0
22.06.2017 00:00:00 16,3 15,5 11 6 19 10 W 1015,4 - 0,0
21.06.2017 23:00:00 16,8 15,8 12 6 20 11 W 1014,9 2,0 0,0
21.06.2017 22:00:00 16,7 15,6 16 9 26 14 W 1014,6 - 0,0
21.06.2017 21:00:00 17,0 16,0 17 9 25 13 WSW 1014,5 - 0,0
21.06.2017 20:00:00 17,0 16,2 18 10 35 19 SW 1014,5 - 0,0
21.06.2017 19:00:00 17,2 15,9 23 12 33 18 SSW 1014,2 - 0,0
21.06.2017 18:00:00 18,0 16,5 23 12 36 20 SSW 1014,1 - 0,0
21.06.2017 17:00:00 17,9 16,2 23 13 33 18 SSW 1014,3 1,1 0,0
21.06.2017 16:00:00 17,7 16,0 26 14 34 18 SSW 1014,4 - 0,0
21.06.2017 15:00:00 18,1 16,3 24 13 32 17 SSW 1014,5 - 0,0
21.06.2017 14:00:00 17,8 16,5 18 10 29 16 S 1014,5 - 0,0
21.06.2017 13:00:00 17,2 16,2 22 12 31 17 SSW 1014,7 - 0,0
21.06.2017 12:00:00 16,7 16,1 22 12 29 16 SSW 1014,5 - 0,0
21.06.2017 11:00:00 16,2 15,6 23 12 29 16 SSW 1014,2 0,1 0,0
21.06.2017 10:00:00 16,8 16,5 8 4 14 7 SSE 1014,3 - 0,0
21.06.2017 09:00:00 17,2 16,9 3 1 16 9 N 1013,8 - 0,0
21.06.2017 08:00:00 17,1 16,8 12 6 25 13 W 1013,5 0,1 0,2
21.06.2017 07:00:00 17,1 16,6 18 10 22 12 WSW 1013,1 - 0,0
21.06.2017 06:00:00 17,5 17,0 19 10 24 13 WSW 1013,0 - 0,0
21.06.2017 05:00:00 16,7 15,7 15 8 16 9 SSW 1013,3 2,0 0,0
21.06.2017 04:00:00 17,2 15,7 8 4 15 8 SW 1013,4 - 0,0
21.06.2017 03:00:00 16,9 15,4 15 8 26 14 W 1013,8 - 0,0
21.06.2017 02:00:00 18,0 15,8 11 6 12 7 SW 1014,1 - 0,0
21.06.2017 01:00:00 17,5 15,5 6 4 7 4 W 1014,1 - 0,0
21.06.2017 00:00:00 17,7 16,2 4 2 8 4 SW 1014,2 - 0,0
20.06.2017 23:00:00 17,6 15,4 7 4 8 4 WSW 1014,4 8 0,0
20.06.2017 22:00:00 18,3 15,7 0 0 5 3 N 1014,3 - 0,0
20.06.2017 21:00:00 19,7 16,3 4 2 12 7 N 1014,0 - 0,0
20.06.2017 20:00:00 19,8 16,2 8 4 12 7 N 1013,8 10 0,0
20.06.2017 19:00:00 21,7 16,9 10 5 14 7 NE 1013,8 - 0,0
20.06.2017 18:00:00 21,7 17,1 10 6 19 11 NNE 1014,1 - 0,0
20.06.2017 17:00:00 21,0 16,6 13 7 21 11 NNE 1014,4 80 0,0
20.06.2017 16:00:00 19,5 16,2 12 6 19 10 N 1014,6 - 0,0
20.06.2017 15:00:00 20,1 16,3 8 5 19 11 N 1014,8 - 0,0
20.06.2017 14:00:00 20,0 16,4 9 5 16 9 N 1014,8 7 0,0
20.06.2017 13:00:00 21,5 16,7 8 4 19 10 NNE 1014,8 - 0,0
20.06.2017 12:00:00 20,9 16,7 15 8 25 14 ENE 1014,5 - 0,0
20.06.2017 11:00:00 20,4 16,6 16 9 21 11 NE 1014,2 7 0,0
20.06.2017 10:00:00 19,8 16,2 14 8 30 16 ENE 1014,1 - 0,0
20.06.2017 09:00:00 17,3 15,6 26 14 33 18 NE 1014,1 - 0,0
20.06.2017 08:00:00 16,0 15,0 19 10 35 19 NNE 1014,5 7 0,0
20.06.2017 07:00:00 16,0 15,0 25 13 33 18 NE 1014,5 - 0,0

tt = Température de l'air
td = dewpoint
ff = Vitesse du vent
fx = gusts
dd = Direction du vent
ppp = reduced air pressure
vv = visibility
rr = Quantités de précipitations

stations d'obs. à proximité